SCP
0 0 0 0 0 0 0 0 0 0 0 0 0 0 0 0 0 0 0 0 0 0 0 0 0 0 0 0 0 0 0 0 0 0 0 0 0 0 0 0 0 0 0 0 0 0 0 0 0
0 0 0 0 0 0 0 0 0 0 0 0 0 0 0 0 0 0 0 0 0 0 0 0 0 0 0 0 0 0 0 0 0 0 0 0 0 0 0 0 0 0 0 0 0 0 0 0 0
0 0 0 0 0 0 0 0 0 0 0 0 0 0 0 0 0 0 0 0 0 0 0 0 0 0 0 0 0 0 0 0 0 0 0 0 0 0 0 0 0 0 0 0 0 0 0 0 0
0 0 0 0 0 0 0 0 0 0 0 0 0 0 0 0 0 0 0 0 0 0 0 0 0 0 0 0 0 0 0 0 0 0 0 0 0 0 0 0 0 0 0 0 0 0 0 0 0
0 0 0 0 0 0 0 0 0 0 0 0 0 0 0 0 0 0 0 0 0 0 0 0 0 0 0 0 0 0 0 0 0 0 0 0 0 0 0 0 0 0 0 0 0 0 0 0 0
0 0 0 0 0 0 0 0 0 0 0 0 0 0 0 0 0 0 0 0 0 0 0 0 0 0 0 0 0 0 0 0 0 0 0 0 0 0 0 0 0 0 0 0 0 0 0 0 0
0 0 0 0 0 0 0 0 0 0 0 0 0 0 0 0 0 0 0 0 0 0 0 0 0 0 0 0 0 0 0 0 0 0 0 0 0 0 0 0 0 0 0 0 0 0 0 0 0
0 0 0 0 0 0 0 0 0 0 0 0 0 0 0 0 0 0 0 0 0 0 0 0 0 0 0 0 0 0 0 0 0 0 0 0 0 0 0 0 0 0 0 0 0 0 0 0 0
0 0 0 0 0 0 0 0 0 0 0 0 0 0 0 0 0 0 0 0 0 0 0 0 0 0 0 0 0 0 0 0 0 0 0 0 0 0 0 0 0 0 0 0 0 0 0 0 0
0 0 0 0 0 0 0 0 0 0 0 0 0 0 0 0 0 0 0 0 0 0 0 0 0 0 0 0 0 0 0 0 0 0 0 0 0 0 0 0 0 0 0 0 0 0 0 0 0
0 0 0 0 0 0 0 0 0 0 0 0 0 0 0 0 0 0 0 0 0 0 0 0 0 0 0 0 0 0 0 0 0 0 0 0 0 0 0 0 0 0 0 0 0 0 0 0 0
0 0 0 0 0 0 0 0 0 0 0 0 0 0 0 0 0 0 0 0 0 0 0 0 0 0 0 0 0 0 0 0 0 0 0 0 0 0 0 0 0 0 0 0 0 0 0 0 0
0 0 0 0 0 0 0 0 0 0 0 0 0 0 0 0 0 0 0 0 0 0 0 0 0 0 0 0 0 0 0 0 0 0 0 0 0 0 0 0 0 0 0 0 0 0 0 0 0
0 0 0 0 0 0 0 0 0 0 0 0 0 0 0 0 0 0 0 0 0 0 0 0 0 0 0 0 0 0 0 0 0 0 0 0 0 0 0 0 0 0 0 0 0 0 0 0 0
0 0 0 0 0 0 0 0 0 0 0 0 0 0 0 0 0 0 0 0 0 0 0 0 0 0 0 0 0 0 0 0 0 0 0 0 0 0 0 0 0 0 0 0 0 0 0 0 0
0 0 0 0 0 0 0 0 0 0 0 0 0 0 0 0 0 0 0 0 0 0 0 0 0 0 0 0 0 0 0 0 0 0 0 0 0 0 0 0 0 0 0 0 0 0 0 0 0
0 0 0 0 0 0 0 0 0 0 0 0 0 0 0 0 0 0 0 0 0 0 0 0 0 0 0 0 0 0 0 0 0 0 0 0 0 0 0 0 0 0 0 0 0 0 0 0 0
0 0 0 0 0 0 0 0 0 0 0 0 0 0 0 0 0 0 0 0 0 0 0 0 0 0 0 0 0 0 0 0 0 0 0 0 0 0 0 0 0 0 0 0 0 0 0 0 0
0 0 0 0 0 0 0 0 0 0 0 0 0 0 0 0 0 0 0 0 0 0 0 0 0 0 0 0 0 0 0 0 0 0 0 0 0 0 0 0 0 0 0 0 0 0 0 0 0
0 0 0 0 0 0 0 0 0 0 0 0 0 0 0 0 0 0 0 0 0 0 0 0 0 0 0 0 0 0 0 0 0 0 0 0 0 0 0 0 0 0 0 0 0 0 0 0 0
0 0 0 0 0 0 0 0 0 0 0 0 0 0 0 0 0 0 0 0 0 0 0 0 0 0 0 0 0 0 0 0 0 0 0 0 0 0 0 0 0 0 0 0 0 0 0 0 0
0 0 0 0 0 0 0 0 0 0 0 0 0 0 0 0 0 0 0 0 0 0 0 0 0 0 0 0 0 0 0 0 0 0 0 0 0 0 0 0 0 0 0 0 0 0 0 0 0
0 0 0 0 0 0 0 0 0 0 0 0 0 0 0 0 0 0 0 0 0 0 0 0 0 0 0 0 0 0 0 0 0 0 0 0 0 0 0 0 0 0 0 0 0 0 0 0 0
0 0 0 0 0 0 0 0 0 0 0 0 0 0 0 0 0 0 0 0 0 0 0 0 0 0 0 0 0 0 0 0 0 0 0 0 0 0 0 0 0 0 0 0 0 0 0 0 0
0 0 0 0 0 0 0 0 0 0 0 0 0 0 0 0 0 0 0 0 0 0 0 0 0 0 0 0 0 0 0 0 0 0 0 0 0 0 0 0 0 0 0 0 0 0 0 0 0
0 0 0 0 0 0 0 0 0 0 0 0 0 0 0 0 0 0 0 0 0 0 0 0 1 0 0 0 0 0 0 0 0 0 0 0 0 0 0 0 0 0 0 0 0 0 0 0 0
0 0 0 0 0 0 0 0 0 0 0 0 0 0 0 0 0 0 0 0 0 0 0 0 0 0 1 1 1 1 0 0 0 0 0 0 0 0 0 0 1 1 0 0 0 0 0 0 0
0 0 0 0 0 0 0 0 0 0 0 0 0 0 0 0 0 0 0 0 0 0 0 0 0 0 0 1 1 1 1 1 0 0 0 0 0 0 0 0 1 1 1 0 0 0 0 0 0
0 0 0 0 0 0 0 0 0 0 0 0 0 0 0 0 0 0 0 0 0 0 0 0 0 0 0 0 1 1 1 1 1 1 0 0 0 0 0 0 1 1 1 1 1 0 0 0 0
0 0 0 0 0 0 0 0 0 0 0 0 0 0 0 0 0 0 0 0 0 0 0 0 0 0 0 0 0 0 1 1 1 1 1 0 0 0 0 0 0 1 1 1 1 1 0 0 0
Wind_Speed
15 8 2 4 7 6 1 0 3 2 2 1 4 8 7 4 2 3 2 9 12 10 9 10 11 13 14 14 13 13 13 13 13 13 13 14 14 15 15 15 14 14 14 15 14 14 14 13 13
8 4 5 6 6 3 1 1 4 3 4 3 5 6 6 2 2 6 5 9 13 11 9 9 11 13 14 13 13 12 12 12 13 13 13 13 14 14 14 14 13 13 14 14 13 13 12 11 11
8 3 5 5 3 4 3 3 5 3 2 3 4 4 5 4 4 5 7 12 11 10 8 9 11 13 13 13 13 12 12 12 12 13 13 13 13 14 13 13 13 13 13 13 12 12 11 10 9
4 5 6 5 1 3 6 6 5 4 2 3 5 4 2 1 4 6 11 12 11 9 8 10 12 13 13 13 13 12 12 12 12 12 12 12 13 13 13 12 12 12 12 12 11 10 9 8 8
5 5 5 3 1 1 2 4 5 5 4 3 5 5 1 4 4 11 12 12 12 8 7 9 11 11 12 13 12 12 12 11 11 12 12 12 12 12 12 12 11 11 11 11 10 9 8 7 7
5 5 4 1 2 2 1 2 4 4 3 3 6 5 1 1 7 9 10 10 11 10 8 8 11 11 11 11 11 11 11 11 11 11 11 11 11 11 11 11 11 11 10 10 9 8 6 5 5
4 3 2 2 1 1 2 0 4 4 3 3 7 6 2 3 5 7 8 9 9 9 8 6 7 8 10 10 10 10 10 10 10 10 10 9 9 9 9 9 10 10 10 9 8 7 5 4 3
4 3 0 1 2 2 2 1 2 4 3 2 5 9 7 7 6 7 7 7 8 8 8 7 6 6 6 7 10 10 10 10 10 10 10 9 9 8 8 7 8 9 9 9 8 6 5 3 2
3 4 2 2 3 3 2 1 2 1 3 3 3 4 5 10 9 8 6 5 7 8 7 8 7 6 6 6 8 9 9 9 9 8 10 8 5 5 5 6 8 8 8 8 8 7 5 3 1
4 3 6 3 2 2 1 1 0 3 3 2 3 3 5 10 11 10 9 9 10 10 9 8 9 8 7 6 5 4 5 5 5 5 6 5 4 4 5 7 8 8 8 7 8 7 5 2 1
4 6 4 3 2 1 0 1 1 4 2 4 5 6 8 8 9 10 10 9 9 9 9 9 9 9 8 5 5 4 3 4 5 6 6 5 4 3 3 3 4 5 5 4 4 4 2 2 2
3 4 3 2 1 1 1 1 1 2 5 4 6 11 11 11 12 13 12 10 8 8 9 9 9 9 9 7 6 6 5 4 5 6 7 5 3 4 4 3 4 3 3 3 3 2 4 4 4
4 3 3 2 2 2 1 2 2 5 5 1 4 9 12 13 12 11 9 8 8 9 10 10 9 10 9 8 7 7 7 6 6 6 7 7 5 5 5 4 4 5 4 4 4 4 5 5 5
3 3 3 3 3 3 3 4 3 7 3 1 5 9 11 12 13 10 10 11 12 12 12 10 11 10 9 9 8 7 7 6 6 6 8 8 6 6 6 5 5 5 5 5 5 6 5 5 4
1 1 4 4 4 3 2 7 8 8 3 5 7 8 10 11 11 12 13 14 14 13 12 12 12 11 11 10 9 7 7 7 7 7 8 9 8 7 7 6 6 6 6 6 5 6 5 5 5
2 2 5 5 6 5 5 12 9 7 6 8 8 8 9 10 12 13 13 12 12 11 12 13 11 12 12 11 9 7 6 7 6 6 7 9 9 9 7 6 7 6 5 5 5 5 5 5 5
4 6 7 5 6 6 8 10 8 6 6 8 8 8 9 9 10 11 12 13 12 13 13 13 13 13 13 11 9 7 7 7 6 6 7 8 10 10 8 7 6 6 6 6 6 6 5 5 6
8 6 6 8 5 7 9 11 8 6 6 9 9 9 9 10 12 12 12 12 12 12 12 13 13 13 11 8 6 5 6 7 7 7 8 9 9 10 9 7 7 7 6 7 6 7 6 5 5
7 7 7 6 4 6 11 13 12 10 8 9 10 10 10 11 11 9 10 10 9 10 11 13 13 12 10 7 8 8 9 8 7 8 9 10 9 10 10 8 7 8 8 9 9 7 7 7 3
7 7 7 4 3 5 8 13 11 11 11 11 12 12 12 11 9 8 7 7 9 10 11 11 12 12 11 11 9 6 6 6 7 6 8 10 10 11 10 11 9 9 8 9 10 9 6 5 6
14 12 9 5 2 2 4 9 10 9 9 10 10 11 10 12 12 10 8 8 8 9 10 10 11 12 12 11 5 3 3 2 4 7 8 10 12 12 11 11 10 10 10 10 11 11 11 9 7
16 11 8 6 4 5 4 8 9 8 10 12 12 11 12 11 10 9 8 7 8 9 8 9 10 10 9 10 8 9 9 10 10 8 8 8 10 12 12 11 12 11 10 11 11 11 10 10 9
6 7 9 8 7 6 5 8 10 6 11 13 12 12 12 11 10 9 8 8 7 7 6 7 7 8 8 8 10 10 10 10 6 5 7 8 9 11 12 12 12 12 11 12 11 11 12 11 11
5 4 3 4 5 13 14 10 12 9 12 8 9 11 11 10 8 7 6 5 5 4 4 4 5 6 6 7 9 10 11 10 7 7 8 8 7 8 12 12 12 13 12 12 13 12 13 12 12
8 7 5 7 9 12 9 10 14 9 9 10 11 11 10 9 8 7 6 5 4 4 3 3 4 5 5 6 7 9 10 9 10 8 8 7 6 7 10 11 12 12 13 12 11 12 13 14 13
15 14 11 10 8 5 6 14 12 8 9 9 10 9 8 7 7 7 7 6 4 4 4 4 4 4 3 4 5 6 7 6 6 7 7 7 7 8 8 9 11 12 12 12 11 11 13 12 14
12 13 9 4 2 4 8 8 9 5 7 8 8 7 8 7 6 5 5 4 4 3 3 4 3 3 2 3 3 4 4 5 6 6 6 6 6 6 7 8 10 11 12 12 12 11 13 12 13
9 9 6 9 9 10 8 8 8 7 10 9 9 9 8 6 5 5 4 3 3 3 2 2 2 2 1 1 1 1 2 3 4 5 5 6 7 6 7 8 9 10 11 11 12 12 12 13 13
10 12 9 7 7 8 7 9 9 11 12 12 11 10 9 8 7 5 4 3 3 3 3 3 3 2 2 1 1 1 2 2 3 3 5 6 6 7 7 8 8 9 10 10 11 13 12 14 15
10 12 13 11 9 7 7 11 5 8 9 10 10 7 6 6 5 4 4 3 3 3 2 2 2 2 1 1 1 2 2 3 3 4 5 5 6 6 7 8 8 9 9 10 11 13 13 14 15
Wind_Direction
323 324 43 56 53 51 69 228 146 105 71 58 87 92 99 100 139 156 134 139 135 139 142 139 138 136 134 130 128 125 123 120 118 115 113 112 111 109 107 106 104 103 101 100 99 99 98 95 91
318 339 46 56 78 76 319 257 119 134 159 129 87 93 86 78 95 118 126 146 139 140 142 142 140 139 137 135 133 131 129 127 125 122 119 116 115 114 111 111 110 108 107 105 104 103 101 97 90
329 36 68 65 96 162 177 203 155 158 139 99 76 70 109 145 143 150 155 145 136 138 140 143 144 143 142 140 138 136 134 132 130 128 124 121 120 119 116 115 115 113 112 110 109 108 106 99 88
15 30 50 67 70 216 174 193 170 136 90 82 100 74 67 130 173 152 142 140 135 137 140 148 148 147 146 144 143 142 140 138 137 134 130 126 125 124 123 121 120 119 117 116 115 114 111 102 88
46 59 51 32 303 278 193 177 160 140 150 120 108 107 55 341 123 132 140 141 139 139 142 152 150 149 149 149 149 148 146 144 143 140 137 134 134 132 130 130 128 126 124 123 122 122 117 106 92
41 56 77 290 283 292 264 179 135 138 157 130 113 116 142 120 128 140 141 141 142 145 147 153 153 153 153 153 153 151 150 150 148 146 144 143 142 140 139 139 138 136 135 133 132 130 126 115 95
84 85 162 221 245 285 278 131 127 137 152 167 132 119 158 190 165 145 136 138 142 146 148 152 157 158 159 157 156 155 154 153 151 150 148 145 144 142 141 145 148 147 145 143 143 142 139 128 99
120 103 165 241 204 247 283 47 121 137 164 140 122 143 185 198 171 137 128 134 144 151 156 158 160 159 159 160 162 161 159 156 154 153 150 149 149 147 147 148 154 156 156 155 156 159 160 152 117
92 91 205 225 200 242 300 53 2 88 103 65 64 163 188 149 143 135 132 139 157 165 169 167 166 166 164 165 170 166 165 163 159 158 159 156 154 154 158 164 164 165 165 168 171 177 181 181 222
103 166 214 217 206 211 319 71 206 73 69 67 39 36 114 137 152 162 171 174 175 180 181 178 176 175 172 175 166 169 170 169 166 164 166 164 165 172 172 178 175 174 175 179 186 191 192 187 260
163 195 216 233 240 197 16 335 339 128 185 190 184 173 153 159 169 181 188 187 187 183 183 183 182 180 179 178 171 176 174 174 177 177 178 174 172 177 178 172 179 181 182 185 197 197 199 210 226
196 230 216 220 208 157 188 299 339 192 219 222 189 168 168 177 187 194 196 197 189 188 193 187 184 184 185 181 182 182 183 185 188 189 187 179 178 184 184 184 184 184 184 189 197 203 213 225 233
221 246 253 239 222 196 198 229 250 257 263 265 147 163 182 191 200 206 205 200 195 199 201 195 188 188 186 184 187 188 191 192 192 191 194 188 186 190 189 191 191 194 191 194 201 209 217 226 231
220 234 264 259 250 234 229 259 236 249 248 219 174 187 201 203 205 205 205 207 207 207 205 199 196 193 187 190 192 192 193 193 193 196 197 194 192 191 192 195 197 201 200 200 203 209 214 223 224
200 275 295 253 218 223 203 267 237 239 232 235 229 218 215 218 212 209 209 209 209 209 204 201 201 195 194 196 196 195 195 192 197 200 200 199 196 195 195 198 202 205 203 203 207 215 217 224 225
146 195 243 247 198 198 178 250 251 242 223 238 240 239 233 229 221 219 215 213 209 206 203 204 201 199 201 200 198 198 197 198 201 200 201 203 201 197 198 204 208 203 200 203 208 211 216 225 226
195 211 220 246 207 186 194 242 254 238 216 235 240 241 240 241 238 230 221 216 210 206 203 202 201 201 203 202 200 199 197 203 203 202 206 207 205 202 203 210 210 199 203 208 212 213 210 220 226
193 200 209 214 218 190 216 240 256 257 228 236 242 242 242 241 241 233 225 219 214 207 203 202 202 203 200 198 197 201 208 212 208 208 211 208 209 208 209 215 210 201 208 213 214 217 214 218 218
177 188 210 220 215 199 227 243 249 252 246 244 245 243 242 244 245 240 232 224 216 210 205 203 201 201 192 191 198 204 215 215 214 216 214 211 211 209 212 218 212 208 216 219 215 214 220 225 198
213 216 222 246 231 218 244 253 249 242 239 235 238 241 241 244 250 244 234 220 210 208 207 207 206 201 197 200 199 199 200 211 216 217 217 214 214 213 216 219 218 214 220 222 218 213 218 220 191
219 218 211 214 282 270 284 278 251 248 238 242 240 238 238 234 237 238 232 225 214 211 208 206 206 204 203 201 188 181 180 206 208 217 220 218 216 217 219 221 220 217 218 225 222 215 217 224 211
226 213 203 209 212 246 211 270 257 237 247 244 242 240 241 240 236 231 225 221 215 215 209 206 203 202 202 195 192 194 204 217 221 219 221 219 217 220 222 223 221 222 221 226 224 218 219 220 223
208 177 194 208 216 245 225 252 266 226 238 241 239 238 238 235 230 228 224 218 214 210 203 203 201 202 199 196 200 205 217 226 229 220 223 223 221 221 223 224 224 225 225 226 224 220 219 220 225
164 130 158 195 206 240 220 222 262 212 220 227 231 235 235 230 225 225 222 209 210 207 195 194 193 203 199 198 204 209 218 225 229 229 228 229 227 225 224 223 225 227 228 228 227 225 223 225 227
172 164 195 211 217 237 196 214 249 221 214 213 224 232 231 221 211 209 208 203 201 192 189 185 186 206 205 202 208 215 222 224 228 231 233 234 233 231 229 224 226 228 230 230 228 227 228 227 228
194 187 197 205 216 243 188 225 248 229 223 223 228 227 219 213 204 200 201 197 194 188 184 181 184 205 209 209 219 224 228 230 237 238 238 237 238 238 234 226 229 231 231 231 229 230 231 230 231
185 206 201 184 194 232 231 253 285 241 232 229 225 214 212 207 199 193 192 183 178 174 181 181 181 197 212 215 220 227 231 236 245 249 244 246 250 251 242 236 234 234 232 231 230 232 232 231 233
184 169 167 198 205 228 239 233 231 215 218 222 215 211 210 201 190 179 174 169 163 161 157 136 142 169 202 215 222 242 247 249 254 257 258 257 257 256 254 247 243 241 237 234 232 235 235 235 236
176 187 190 194 199 206 237 248 217 205 205 209 213 210 200 195 189 182 170 160 147 127 116 110 101 93 69 37 353 335 308 299 290 279 278 275 273 268 262 256 250 247 244 239 237 238 236 237 239
195 196 190 202 213 208 234 257 234 209 211 207 210 204 192 184 182 174 166 151 132 123 120 115 110 100 78 36 12 341 326 326 317 303 298 297 292 286 276 270 261 254 250 244 241 243 241 241 242